BSTW Weather Reports


time (UTC)temp
C
wind
direction
speed
KPH
gust
KPH
rain 1hr
cm
rain 24hr
cm
rain mn
cm
humidity
%
barometer
mb
20260506222040 28 327 8.0 22.5 0.00 0.00 0.00 69 1006.6
20260506221555 28 41 9.7 22.5 0.00 0.00 0.00 68 1006.6
20260506221041 30 91 6.4 16.1 0.00 0.00 0.00 68 1006.6
20260506220543 30 272 6.4 16.1 0.00 0.00 0.00 67 1006.4
20260506220053 30 103 6.4 12.9 0.00 0.00 0.00 66 1006.4
20260506215543 30 0 3.2 12.9 0.00 0.00 0.00 66 1006.4
20260506215039 30 128 4.8 14.5 0.00 0.00 0.00 66 1006.3
20260506214543 30 212 4.8 14.5 0.00 0.00 0.00 65 1006.4
20260506214041 30 146 1.6 9.7 0.00 0.00 0.00 66 1006.4
20260506213540 31 97 1.6 9.7 0.00 0.00 0.00 65 1006.5
20260506213049 30 0 0.0 11.3 0.00 0.00 0.00 65 1006.5
20260506212540 30 83 3.2 12.9 0.00 0.00 0.00 66 1006.6
20260506212043 30 347 1.6 16.1 0.00 0.00 0.00 67 1006.6
20260506211551 30 174 3.2 16.1 0.00 0.00 0.00 66 1006.6
20260506211042 31 106 3.2 16.1 0.00 0.00 0.00 65 1006.7
20260506210540 31 340 1.6 8.0 0.00 0.00 0.00 65 1006.7
20260506210053 31 100 0.0 8.0 0.00 0.00 0.00 65 1006.7
20260506205544 30 0 3.2 8.0 0.00 0.00 0.00 65 1006.8
20260506205040 30 86 0.0 9.7 0.00 0.00 0.00 66 1006.8
20260506204551 31 29 4.8 9.7 0.00 0.00 0.00 65 1006.9
20260506204039 31 61 0.0 19.3 0.00 0.00 0.00 66 1006.8
20260506203540 31 98 4.8 19.3 0.00 0.00 0.00 64 1006.8
20260506203048 31 139 6.4 19.3 0.00 0.00 0.00 63 1006.8
20260506202540 32 28 1.6 4.8 0.00 0.00 0.00 62 1006.9
20260506202040 32 278 0.0 11.3 0.00 0.00 0.00 63 1007.0
20260506201548 31 12 1.6 11.3 0.00 0.00 0.00 63 1007.1
20260506201039 32 97 1.6 8.0 0.00 0.00 0.00 62 1007.1
20260506200541 31 279 0.0 4.8 0.00 0.00 0.00 64 1007.2
20260506200048 31 0 1.6 4.8 0.00 0.00 0.00 64 1007.4
20260506195540 31 0 1.6 6.4 0.00 0.00 0.00 65 1007.4
20260506195040 31 31 3.2 8.0 0.00 0.00 0.00 66 1007.6
20260506194548 31 172 1.6 8.0 0.00 0.00 0.00 67 1007.6
20260506194040 31 340 0.0 8.0 0.00 0.00 0.00 64 1007.7
20260506193539 31 33 1.6 11.3 0.00 0.00 0.00 64 1007.6
20260506193044 31 130 0.0 16.1 0.00 0.00 0.00 66 1007.7
20260506192539 30 129 4.8 16.1 0.00 0.00 0.00 66 1007.8
20260506192039 30 127 6.4 16.1 0.00 0.00 0.00 67 1007.7
20260506191546 30 47 4.8 14.5 0.00 0.00 0.00 68 1007.7
20260506191040 29 344 4.8 14.5 0.00 0.00 0.00 71 1007.8
20260506190539 29 131 4.8 12.9 0.00 0.00 0.00 70 1007.8
20260506190055 28 134 0.0 8.0 0.00 0.00 0.00 71 1007.9
20260506185541 28 0 1.6 11.3 0.00 0.00 0.00 73 1007.9
20260506185039 28 352 3.2 11.3 0.00 0.00 0.00 75 1008.0
20260506184549 28 49 1.6 9.7 0.00 0.00 0.00 76 1008.2
20260506184040 28 41 1.6 6.4 0.00 0.00 0.00 76 1008.1
20260506183539 28 68 1.6 6.4 0.00 0.00 0.00 76 1008.3
20260506183048 27 0 0.0 8.0 0.00 0.00 0.00 76 1008.3
20260506182540 27 4 1.6 8.0 0.00 0.00 0.00 77 1008.5
20260506182040 27 44 1.6 8.0 0.00 0.00 0.00 77 1008.5
20260506181543 28 70 0.0 6.4 0.00 0.00 0.00 76 1008.5
20260506181043 27 0 0.0 9.7 0.00 0.00 0.00 77 1008.5
20260506180540 27 20 1.6 11.3 0.00 0.00 0.00 78 1008.6
20260506180057 27 0 3.2 11.3 0.00 0.00 0.00 78 1008.6
20260506175540 27 78 1.6 8.0 0.00 0.00 0.00 78 1008.7
20260506175039 27 6 0.0 6.4 0.00 0.00 0.00 77 1008.7
20260506174547 27 0 1.6 6.4 0.00 0.00 0.00 78 1008.8
20260506174040 27 67 0.0 6.4 0.00 0.00 0.00 81 1008.7
20260506173540 26 37 1.6 8.0 0.00 0.00 0.00 81 1008.8
20260506173103 26 26 1.6 11.3 0.00 0.00 0.00 82 1008.7
20260506172540 26 73 3.2 11.3 0.00 0.00 0.00 81 1008.7
20260506172040 26 35 3.2 9.7 0.00 0.00 0.00 83 1008.7
20260506171551 26 24 4.8 9.7 0.00 0.00 0.00 82 1008.7
20260506171040 26 33 0.0 6.4 0.00 0.00 0.00 82 1008.7
20260506170540 26 0 3.2 8.0 0.00 0.00 0.00 83 1008.7
20260506170059 26 62 3.2 8.0 0.00 0.00 0.00 84 1008.7
20260506165543 26 356 0.0 9.7 0.00 0.00 0.00 84 1008.7
20260506165040 26 1 4.8 9.7 0.00 0.00 0.00 84 1008.8
20260506164605 26 8 1.6 11.3 0.00 0.00 0.00 84 1008.8
20260506164039 26 46 3.2 11.3 0.00 0.00 0.00 83 1008.8
20260506163539 26 58 4.8 9.7 0.00 0.00 0.00 84 1008.6
20260506163058 26 86 4.8 9.7 0.00 0.00 0.00 83 1008.7
20260506162541 26 14 3.2 11.3 0.00 0.00 0.00 84 1008.6
20260506162039 26 96 6.4 11.3 0.00 0.00 0.00 86 1008.6
20260506161552 25 0 4.8 11.3 0.00 0.00 0.00 88 1008.6
20260506161040 25 17 3.2 8.0 0.00 0.00 0.00 88 1008.5
20260506160540 25 25 4.8 8.0 0.00 0.00 0.00 89 1008.5
20260506160105 25 59 4.8 8.0 0.00 0.00 0.00 90 1008.5
20260506155540 24 82 3.2 8.0 0.00 0.00 0.00 90 1008.5
20260506155040 24 44 3.2 11.3 0.00 0.00 0.00 91 1008.4
20260506154553 24 13 4.8 11.3 0.00 0.00 0.00 90 1008.3
20260506154040 24 90 1.6 8.0 0.00 0.00 0.00 90 1008.3
20260506153540 24 10 1.6 8.0 0.00 0.00 0.00 89 1008.2
20260506153047 24 89 1.6 6.4 0.00 0.00 0.00 89 1008.1
20260506152536 24 40 1.6 9.7 0.00 0.00 0.00 89 1008.1
20260506152040 24 62 1.6 9.7 0.00 0.00 0.00 89 1008.0
20260506151550 24 90 3.2 11.3 0.00 0.00 0.00 89 1007.9
20260506151039 24 0 1.6 11.3 0.00 0.00 0.00 89 1007.9
20260506150539 24 112 4.8 11.3 0.00 0.00 0.00 89 1007.9
20260506150050 24 111 3.2 11.3 0.00 0.00 0.00 89 1007.9
20260506145544 24 86 3.2 11.3 0.00 0.00 0.00 89 1007.8
20260506145041 24 70 1.6 9.7 0.00 0.00 0.00 90 1007.9
20260506144552 24 83 3.2 9.7 0.00 0.00 0.00 89 1007.7
20260506144040 24 0 1.6 9.7 0.00 0.00 0.00 89 1007.6
20260506143540 24 70 3.2 12.9 0.00 0.00 0.00 90 1007.6
20260506143050 24 117 4.8 16.1 0.00 0.00 0.00 90 1007.4
20260506142539 24 104 6.4 16.1 0.00 0.00 0.00 90 1007.4
20260506142039 24 98 3.2 12.9 0.00 0.00 0.00 90 1007.3
20260506141607 24 0 4.8 12.9 0.00 0.00 0.00 90 1007.4
20260506141042 24 0 3.2 12.9 0.00 0.00 0.00 90 1007.2
20260506140539 24 125 6.4 12.9 0.00 0.00 0.00 91 1007.1
20260506140049 24 140 1.6 14.5 0.00 0.00 0.00 90 1007.0
20260506135540 23 151 6.4 14.5 0.00 0.00 0.00 91 1007.1
20260506135040 23 239 3.2 14.5 0.00 0.00 0.00 91 1006.7
20260506134546 23 82 6.4 17.7 0.00 0.00 0.00 91 1006.7
20260506134039 23 113 6.4 17.7 0.00 0.00 0.00 91 1006.7
20260506133539 23 231 1.6 16.1 0.00 0.00 0.00 91 1006.7
20260506133057 23 134 6.4 16.1 0.00 0.00 0.00 92 1006.6
20260506132540 23 226 6.4 17.7 0.00 0.00 0.00 92 1006.6
20260506132041 23 116 8.0 17.7 0.00 0.00 0.00 92 1006.6
20260506131548 23 68 8.0 17.7 0.00 0.00 0.00 92 1006.4
20260506131041 23 79 6.4 17.7 0.00 0.00 0.00 92 1006.4
20260506130540 23 39 6.4 17.7 0.00 0.00 0.00 92 1006.3
20260506130048 23 128 3.2 11.3 0.00 0.00 0.00 92 1006.2
20260506125539 23 98 1.6 12.9 0.00 0.00 0.00 92 1006.4
20260506125039 23 222 6.4 12.9 0.00 0.00 0.00 92 1006.2
20260506124551 23 84 4.8 12.9 0.00 0.00 0.00 92 1006.3
20260506124039 23 0 3.2 12.9 0.00 0.00 0.00 93 1006.3
20260506123540 23 130 4.8 12.9 0.00 0.00 0.00 93 1006.4
20260506123047 23 276 6.4 17.7 0.00 0.00 0.00 93 1006.2
20260506122540 23 16 6.4 17.7 0.00 0.00 0.00 93 1006.3
20260506122040 23 90 6.4 12.9 0.00 0.00 0.00 93 1006.4
20260506121555 23 0 3.2 11.3 0.00 0.00 0.00 93 1006.4
20260506121040 23 117 1.6 12.9 0.00 0.00 0.00 93 1006.5
20260506120540 23 89 3.2 12.9 0.00 0.00 0.00 93 1006.3
20260506120115 23 101 4.8 11.3 0.00 0.00 0.00 93 1006.1
20260506115539 23 89 4.8 11.3 0.00 0.00 0.00 93 1006.2
20260506115039 23 118 4.8 9.7 0.00 0.00 0.00 93 1006.3
20260506114547 23 128 3.2 6.4 0.00 0.00 0.00 93 1006.2
20260506114039 23 140 1.6 8.0 0.00 0.00 0.00 93 1006.3
20260506113539 23 0 1.6 8.0 0.00 0.00 0.00 94 1006.3
20260506113049 23 0 0.0 8.0 0.00 0.00 0.00 94 1006.1
20260506112541 23 0 0.0 3.2 0.00 0.00 0.00 94 1006.1
20260506112039 23 96 0.0 3.2 0.00 0.00 0.00 93 1006.1
20260506111549 23 0 0.0 1.6 0.00 0.00 0.00 94 1006.2
20260506111041 23 0 0.0 3.2 0.00 0.00 0.00 94 1006.1
20260506110540 23 0 0.0 3.2 0.00 0.00 0.00 94 1006.1
20260506110051 23 0 0.0 3.2 0.00 0.00 0.00 94 1006.1
20260506105542 23 0 0.0 4.8 0.00 0.00 0.00 93 1006.1
20260506105040 23 127 0.0 4.8 0.00 0.00 0.00 93 1006.0
20260506104548 23 96 1.6 6.4 0.00 0.00 0.00 93 1005.8
20260506104040 23 112 1.6 6.4 0.00 0.00 0.00 93 1005.9
20260506103539 23 108 4.8 6.4 0.00 0.00 0.00 94 1005.8
20260506103053 23 129 0.0 4.8 0.00 0.00 0.00 91 1005.8
20260506102540 23 99 0.0 8.0 0.00 0.00 0.00 93 1005.8
20260506102041 23 0 1.6 9.7 0.00 0.00 0.00 92 1005.8
20260506101550 23 150 3.2 9.7 0.00 0.00 0.00 93 1005.9
20260506101040 23 117 4.8 11.3 0.00 0.00 0.00 92 1005.8
20260506100540 23 115 6.4 11.3 0.00 0.00 0.00 92 1005.8
20260506100048 23 131 6.4 11.3 0.00 0.00 0.00 92 1005.8
20260506095540 23 91 4.8 11.3 0.00 0.00 0.00 92 1006.0
20260506095040 23 148 4.8 11.3 0.00 0.00 0.00 92 1005.9
20260506094549 23 129 4.8 11.3 0.00 0.00 0.00 92 1005.9
20260506094040 23 101 4.8 11.3 0.00 0.00 0.00 92 1005.9
20260506093542 23 122 6.4 12.9 0.00 0.00 0.00 92 1006.0
20260506093052 23 114 4.8 14.5 0.00 0.00 0.00 92 1006.0
20260506092540 23 132 6.4 14.5 0.00 0.00 0.00 92 1006.0
20260506092040 23 155 6.4 12.9 0.00 0.00 0.00 92 1006.0
20260506091547 23 79 4.8 12.9 0.00 0.00 0.00 91 1005.8
20260506091040 23 155 6.4 12.9 0.00 0.00 0.00 92 1005.9
20260506090539 23 100 8.0 12.9 0.00 0.00 0.00 92 1005.8
20260506090046 23 63 4.8 12.9 0.00 0.00 0.00 91 1005.9
20260506085541 23 155 4.8 20.9 0.00 0.00 0.00 92 1006.0
20260506085040 23 255 8.0 20.9 0.00 0.00 0.00 92 1006.0
20260506084549 23 134 6.4 14.5 0.00 0.00 0.00 91 1006.1
20260506084040 23 118 6.4 16.1 0.00 0.00 0.00 91 1006.1
20260506083540 23 116 6.4 16.1 0.00 0.00 0.00 91 1006.1
20260506083048 23 99 9.7 17.7 0.00 0.00 0.00 91 1006.1
20260506082542 23 134 8.0 17.7 0.00 0.00 0.00 90 1006.1
20260506082040 23 131 6.4 14.5 0.00 0.00 0.00 91 1006.3
20260506081550 23 122 6.4 24.1 0.00 0.00 0.00 90 1006.3
20260506081040 23 194 11.3 24.1 0.00 0.00 0.00 90 1006.3
20260506080545 23 103 6.4 16.1 0.00 0.00 0.00 90 1006.1
20260506073055 24 122 6.4 17.7 0.00 0.00 0.00 90 1006.3
20260506072539 24 120 9.7 19.3 0.00 0.00 0.00 90 1006.3
20260506072040 24 149 9.7 19.3 0.00 0.00 0.00 90 1006.3
20260506071554 24 113 6.4 20.9 0.00 0.00 0.00 89 1006.4
20260506071319 24 39 11.3 20.9 0.00 0.00 0.00 90 1006.5
20260506070540 24 143 9.7 20.9 0.00 0.00 0.00 90 1006.4
20260506070115 24 101 9.7 22.5 0.00 0.00 0.00 90 1006.4
20260506062042 24 90 17.7 29.0 0.00 0.00 0.00 89 1006.4
20260506061546 24 32 16.1 29.0 0.00 0.00 0.00 90 1006.3
20260506061044 24 99 11.3 27.4 0.00 0.00 0.00 90 1006.2
20260506060539 24 248 11.3 27.4 0.00 0.00 0.00 90 1006.5
20260506051040 24 88 9.7 24.1 0.00 0.00 0.00 89 1006.3
20260506050540 24 52 11.3 24.1 0.00 0.00 0.00 89 1006.3
20260506045039 24 147 12.9 24.1 0.00 0.00 0.00 89 1006.2
20260506044555 25 76 6.4 22.5 0.00 0.00 0.00 88 1006.2
20260506044039 25 315 11.3 22.5 0.00 0.00 0.00 88 1006.2
20260506043539 25 121 9.7 22.5 0.00 0.00 0.00 88 1006.2
20260506043048 25 131 12.9 33.8 0.00 0.00 0.00 87 1006.2
20260506042540 25 109 16.1 33.8 0.00 0.00 0.00 87 1006.2
20260506042041 25 217 16.1 33.8 0.00 0.00 0.00 86 1006.2
20260506041554 25 77 16.1 27.4 0.00 0.00 0.00 87 1006.2
20260506041041 25 278 9.7 27.4 0.00 0.00 0.00 86 1006.0
20260506040537 25 287 11.3 27.4 0.00 0.00 0.00 86 1006.1
20260506040051 25 162 11.3 24.1 0.00 0.00 0.00 86 1005.8
20260506035539 25 134 14.5 24.1 0.00 0.00 0.00 85 1005.9
20260506035040 26 133 8.0 32.2 0.00 0.00 0.00 85 1005.8
20260506034549 26 147 11.3 32.2 0.00 0.00 0.00 85 1005.8
20260506034040 26 145 12.9 32.2 0.00 0.00 0.00 85 1005.8
20260506033540 26 162 16.1 32.2 0.00 0.00 0.00 84 1005.7
20260506033052 26 23 14.5 32.2 0.00 0.00 0.00 84 1005.6
20260506032540 26 76 16.1 32.2 0.00 0.00 0.00 83 1005.5
20260506032040 26 98 11.3 25.7 0.00 0.00 0.00 83 1005.5
20260506031559 26 135 8.0 22.5 0.00 0.00 0.00 84 1005.5
20260506031040 26 242 8.0 25.7 0.00 0.00 0.00 83 1005.5
20260506030539 26 153 6.4 29.0 0.00 0.00 0.00 83 1005.3
20260506030109 26 165 14.5 32.2 0.00 0.00 0.00 83 1005.2
20260506025539 26 261 12.9 32.2 0.00 0.00 0.00 82 1005.2
20260506025040 26 87 12.9 32.2 0.00 0.00 0.00 82 1005.1
20260506024548 26 15 11.3 29.0 0.00 0.00 0.00 81 1004.9
20260506024039 27 101 14.5 35.4 0.00 0.00 0.00 81 1004.8
20260506023540 27 110 17.7 35.4 0.00 0.00 0.00 81 1004.6
20260506023052 27 148 11.3 33.8 0.00 0.00 0.00 81 1004.8
20260506022543 27 73 14.5 33.8 0.00 0.00 0.00 81 1004.8
20260506022041 27 115 17.7 33.8 0.00 0.00 0.00 80 1004.7
20260506021551 27 344 17.7 30.6 0.00 0.00 0.00 80 1004.6
20260506021039 27 141 6.4 29.0 0.00 0.00 0.00 79 1004.6
20260506020539 27 108 14.5 30.6 0.00 0.00 0.00 79 1004.5
20260506020048 27 139 17.7 35.4 0.00 0.00 0.00 79 1004.5
20260506015540 27 94 16.1 35.4 0.00 0.00 0.00 78 1004.2
20260506015041 28 89 17.7 35.4 0.00 0.00 0.00 78 1004.1
20260506014558 28 32 11.3 33.8 0.00 0.00 0.00 76 1004.0
20260506014042 28 360 8.0 27.4 0.00 0.00 0.00 75 1004.0
20260506013540 28 46 12.9 32.2 0.00 0.00 0.00 74 1003.8
20260506013052 28 252 14.5 32.2 0.00 0.00 0.00 74 1003.7
20260506012540 28 290 6.4 25.7 0.00 0.00 0.00 74 1003.8
20260506012040 28 83 9.7 25.7 0.00 0.00 0.00 74 1003.7
20260506011557 28 298 9.7 22.5 0.00 0.00 0.00 74 1003.5
20260506011040 28 84 12.9 22.5 0.00 0.00 0.00 73 1003.4
20260506010540 28 104 4.8 19.3 0.00 0.00 0.00 72 1003.4
20260506010049 29 117 11.3 19.3 0.00 0.00 0.00 71 1003.3
20260506005540 29 88 9.7 19.3 0.00 0.00 0.00 71 1003.3
20260506005039 29 99 8.0 20.9 0.00 0.00 0.00 71 1003.2
20260506004624 29 97 9.7 20.9 0.00 0.00 0.00 70 1003.1
20260506004040 30 94 9.7 19.3 0.00 0.00 0.00 69 1003.0
20260506003540 30 8 4.8 16.1 0.00 0.00 0.00 69 1003.1
20260506003049 30 357 3.2 16.1 0.00 0.00 0.00 69 1003.2
20260506002540 30 90 4.8 16.1 0.00 0.00 0.00 67 1003.2
20260506002043 30 109 4.8 12.9 0.00 0.00 0.00 67 1003.2
20260506001549 30 132 3.2 22.5 0.00 0.00 0.00 66 1003.1
20260506001040 31 111 6.4 22.5 0.00 0.00 0.00 67 1003.1
20260506000540 31 97 4.8 14.5 0.00 0.00 0.00 65 1003.1
20260506000054 31 69 3.2 11.3 0.00 0.00 0.00 65 1003.1
20260505235540 31 0 0.0 9.7 0.00 0.00 0.00 65 1003.0
20260505235041 31 139 1.6 14.5 0.00 0.00 0.00 66 1003.0
20260505234611 31 155 6.4 14.5 0.00 0.00 0.00 66 1003.0
20260505234040 31 122 4.8 16.1 0.00 0.00 0.00 66 1003.0
20260505233539 31 150 4.8 17.7 0.00 0.00 0.00 66 1003.0
20260505233051 31 127 8.0 17.7 0.00 0.00 0.00 65 1003.1
20260505232540 31 129 4.8 16.1 0.00 0.00 0.00 65 1003.1
20260505232041 31 101 1.6 12.9 0.00 0.00 0.00 65 1003.1
20260505231550 31 340 1.6 9.7 0.00 0.00 0.00 64 1003.0
20260505231039 31 0 0.0 6.4 0.00 0.00 0.00 63 1003.1
20260505230540 31 183 1.6 9.7 0.00 0.00 0.00 65 1003.0
20260505230055 31 116 3.2 9.7 0.00 0.00 0.00 65 1003.0
20260505225540 31 107 1.6 8.0 0.00 0.00 0.00 65 1003.1
20260505225040 31 99 1.6 14.5 0.00 0.00 0.00 65 1003.0
20260505224552 31 116 1.6 22.5 0.00 0.00 0.00 65 1002.8
20260505224040 31 106 11.3 22.5 0.00 0.00 0.00 65 1003.0
20260505223539 31 351 1.6 17.7 0.00 0.00 0.00 64 1003.0
20260505223059 31 176 9.7 19.3 0.00 0.00 0.00 66 1002.9
20260505222541 31 346 4.8 19.3 0.00 0.00 0.00 65 1003.0